Newburgh, NY

6:06 PM EDT on September 28, 2016 (GMT -0400)
Stewart International

Weather History for KSWF - October, 2011

Change the Weather History Date:

Saturday, October 15, 2011

  Actual Average Record
Temperature  
Mean Temperature 54 °F -  
Max Temperature 59 °F 59 °F 79 °F (1975)
Min Temperature 50 °F 40 °F 23 °F (1993)
Degree Days  
Heating Degree Days 10    
Growing Degree Days 4 (Base 50)    
Moisture  
Dew Point 43 °F    
Average Humidity 65    
Maximum Humidity 82    
Minimum Humidity 47    
Precipitation  
Precipitation 0.00 in - - ()
Sea Level Pressure  
Sea Level Pressure 29.61 in    
Wind  
Wind Speed 15 mph (WSW)    
Max Wind Speed 21 mph    
Max Gust Speed 32 mph    
Visibility 16 miles    
Events      
Averages and records for this station are not official NWS values.
T = Trace of Precipitation, MM = Missing Value Source: NWS Daily Summary

Daily Weather History Graph

Daily Weather History Graph

Search for Another Location

Airport or City:

Trip Planner

Search our weather history database for the weather conditions in past years. The results will help you decide how hot, cold, wet, or windy it might be!

Date:

Astronomy

Oct. 15, 2011 Rise Set
Actual Time 7:08 AM EDT 6:15 PM EDT
Civil Twilight 6:40 AM EDT 6:43 PM EDT
Nautical Twilight 6:07 AM EDT 7:15 PM EDT
Astronomical Twilight 5:35 AM EDT 7:47 PM EDT
Moon 8:07 PM EDT (10/15) 10:32 AM EDT (10/15)
Length of Visible Light 12h 03m
Length of Day
11h 07m
Waning Gibbous, 89% of the Moon is Illuminated
Oct 15
Waning Gibbous
Oct 19
Last Quarter
Oct 26
New
Nov 2
First Quarter
Nov 10
Full

Hourly Weather History & Observations

Time (EDT) Temp. Dew Point Humidity Pressure Visibility Wind Dir Wind Speed Gust Speed Precip Events Conditions
12:45 AM 55.4 °F 46.4 °F 72% 29.51 in 10.0 mi West 13.8 mph 20.7 mph N/A   Scattered Clouds
1:45 AM 53.6 °F 46.4 °F 77% 29.53 in 10.0 mi WSW 13.8 mph 23.0 mph N/A   Clear
2:45 AM 53.6 °F 46.4 °F 77% 29.55 in 10.0 mi WSW 9.2 mph - N/A   Clear
3:47 AM 51.8 °F 46.4 °F 82% 29.55 in 10.0 mi WSW 17.3 mph - N/A   Clear
4:45 AM 51.8 °F 46.4 °F 82% 29.57 in 10.0 mi WSW 13.8 mph 20.7 mph N/A   Clear
5:45 AM 50.0 °F 44.6 °F 82% 29.57 in 10.0 mi WSW 13.8 mph 20.7 mph N/A   Clear
7:55 AM 51.8 °F 44.6 °F 76% 29.62 in 20.0 mi WSW 13.8 mph - N/A   Mostly Cloudy
8:55 AM 53.6 °F 44.6 °F 72% 29.63 in 20.0 mi WSW 13.8 mph 21.9 mph N/A   Partly Cloudy
9:50 AM 55.4 °F 46.4 °F 72% 29.62 in 20.0 mi WSW 20.7 mph 31.1 mph N/A   Partly Cloudy
10:50 AM 57.2 °F 46.4 °F 67% 29.62 in 20.0 mi WSW 19.6 mph 32.2 mph N/A   Mostly Cloudy
11:45 AM 57.2 °F 46.4 °F 67% 29.61 in 20.0 mi West 17.3 mph 28.8 mph N/A   Mostly Cloudy
12:50 PM 57.2 °F 42.8 °F 59% 29.62 in 20.0 mi WSW 17.3 mph 32.2 mph N/A   Mostly Cloudy
1:50 PM 59.0 °F 42.8 °F 55% 29.60 in 20.0 mi WSW 16.1 mph 28.8 mph N/A   Mostly Cloudy
3:45 PM 59.0 °F 42.8 °F 55% 29.60 in 20.0 mi WSW 15.0 mph 26.5 mph N/A   Mostly Cloudy
4:45 PM 59.0 °F 41.0 °F 51% 29.60 in 20.0 mi West 17.3 mph 26.5 mph N/A   Scattered Clouds
5:45 PM 59.0 °F 39.2 °F 48% 29.63 in 20.0 mi West 11.5 mph 23.0 mph N/A   Mostly Cloudy
6:45 PM 57.2 °F 39.2 °F 51% 29.66 in 10.0 mi WSW 11.5 mph 18.4 mph N/A   Mostly Cloudy
9:45 PM 55.4 °F 35.6 °F 47% 29.72 in 10.0 mi WSW 13.8 mph 23.0 mph N/A   Scattered Clouds
10:45 PM 55.4 °F 37.4 °F 51% 29.73 in 15.0 mi West 16.1 mph 28.8 mph N/A   Mostly Cloudy
11:45 PM 57.2 °F 37.4 °F 48% 29.75 in 20.0 mi WSW 17.3 mph 27.6 mph N/A   Mostly Cloudy